Location: Beau Repaire
(50.6144°N, 4.0551°E)
Time: 16:28:01
(UTC+00:00)

Cosmos 1602 Rocket - Pass Details

Date: 15 May 2026
Orbit: 597 x 624 km, 82.5° (Epoch: 10 June)

Event Time Altitude Azimuth Distance (km) Brightness Sun altitude
Rises 20:38:37 0° 352° (N) 2,861 8.0 -9.7°
Reaches altitude 10° 20:40:51 10° 356° (N) 1,956 7.0 -10.0°
Maximum altitude 20:45:08 61° 77° (ENE) 691 3.7 -10.4°
Enters shadow 20:48:47 14° 156° (SSE) 1,704 5.2 -10.8°
